This is the latest recevied weather packets stored in our database for station/object K0VSC-1. If no packets are shown the sender has not sent any weather packets the latest 10 day(s).
| Time | Temp. | Humidity | Pressure | Rain* | Wind** | Luminosity | Snow |
|---|---|---|---|---|---|---|---|
| 1778091483 | 3.89° C | 53% | 1017.3 hPa | 0 mm | - | 417 W/m² | - |
| 1778091183 | 3.89° C | 53% | 1017.3 hPa | 0 mm | - | 466 W/m² | - |
| 1778090883 | 3.89° C | 54% | 1017.4 hPa | 0 mm | - | 418 W/m² | - |
| 1778090583 | 3.89° C | 55% | 1017.5 hPa | 0 mm | - | 475 W/m² | - |
| 1778090283 | 3.89° C | 54% | 1017.4 hPa | 0 mm | - | 413 W/m² | - |
| 1778089983 | 3.33° C | 54% | 1017.5 hPa | 0 mm | - | 410 W/m² | - |
| 1778089683 | 3.33° C | 56% | 1017.6 hPa | 0 mm | - | 399 W/m² | - |
| 1778089383 | 3.33° C | 55% | 1017.6 hPa | 0 mm | - | 425 W/m² | - |
| 1778089083 | 3.33° C | 56% | 1017.6 hPa | 0 mm | - | 355 W/m² | - |
| 1778088783 | 3.33° C | 56% | 1017.7 hPa | 0 mm | - | 452 W/m² | - |
| 1778088483 | 3.33° C | 56% | 1017.8 hPa | 0 mm | - | 367 W/m² | - |
| 1778088183 | 2.78° C | 57% | 1017.8 hPa | 0 mm | - | 415 W/m² | - |
| 1778087883 | 2.78° C | 59% | 1017.7 hPa | 0 mm | - | 320 W/m² | - |
| 1778087583 | 2.78° C | 57% | 1017.9 hPa | 0 mm | - | 318 W/m² | - |
| 1778087283 | 2.78° C | 59% | 1017.9 hPa | 0 mm | - | 345 W/m² | - |
| 1778086983 | 2.22° C | 58% | 1018 hPa | 0 mm | - | 315 W/m² | - |
| 1778086683 | 2.22° C | 60% | 1018.1 hPa | 0 mm | - | 306 W/m² | - |
| 1778086383 | 2.22° C | 59% | 1018 hPa | 0 mm | - | 309 W/m² | - |
| 1778086083 | 2.22° C | 60% | 1018.1 hPa | 0 mm | - | 267 W/m² | - |
| 1778085783 | 2.22° C | 59% | 1018.1 hPa | 0 mm | - | 230 W/m² | - |
| 1778085483 | 2.22° C | 59% | 1018 hPa | 0 mm | - | 253 W/m² | - |
| 1778085183 | 2.22° C | 59% | 1018.1 hPa | 0 mm | - | 243 W/m² | - |
| 1778084883 | 2.22° C | 61% | 1018 hPa | 0 mm | - | 211 W/m² | - |
| 1778084583 | 2.22° C | 60% | 1018.1 hPa | 0 mm | - | 206 W/m² | - |
| 1778084283 | 2.22° C | 61% | 1018.2 hPa | 0 mm | - | 214 W/m² | - |
* Rain latest hour (hover to see other rain measurements)
** Current wind speed in m/s (hover to see current wind gust speed)